Tracking 26218 objects as of 26-Sep-2022
HD Live streaming from Space Station
objects crossing your sky now

STARLINK-3172

Track STARLINK-3172 now!
10-day predictions
STARLINK-3172 is classified as:


NORAD ID: 51139
Int'l Code: 2022-005AM
Perigee: 545.4 km
Apogee: 548.4 km
Inclination: 53.2 °
Period: 95.4 minutes
Semi major axis: 6917 km
RCS: Unknown
Launch date: January 19, 2022
Source: United States (US)
Launch site: AIR FORCE EASTERN TEST RANGE (AFETR)
aabbcc
Your satellite tracking list
Your tracking list is empty




NASA's NSSDC Master Catalog

Two Line Element Set (TLE):
1 51139U 22005AM  22268.29947210  .00002836  00000-0  19617-3 0  9998
2 51139  53.2177 201.7274 0002179  39.3429 320.7721 15.08845304 38313
Source of the keplerian elements: AFSPC